Location: *
(51.1248°S, 108.4023°W)
Time: 04:02:22
(UTC+00:00)

Cosmos 1656 Rocket - Visible Passes

Search period start: 18 October 2021 00:00
Search period end: 28 October 2021 00:00
Orbit: 797 x 845 km, 71.1° (Epoch: 17 October)

Date Brightness Start Highest point End Pass type
(mag) Time Alt. Az. Time Alt. Az. Time Alt. Az.
18 Oct 5.3 09:13:58 15° NNE 09:17:20 26° ENE 09:22:00 10° SE visible
18 Oct 3.8 10:55:21 13° NW 11:00:30 64° SW 11:06:14 10° SSE visible
19 Oct 5.5 08:53:18 16° NE 08:56:06 23° E 09:00:28 10° SE visible
19 Oct 3.7 10:34:41 17° NW 10:39:07 73° WSW 10:44:54 10° SSE visible
20 Oct 5.6 08:32:35 16° NE 08:34:53 20° E 08:38:51 10° SE visible
20 Oct 3.7 10:13:57 22° NNW 10:17:46 83° WSW 10:23:33 10° SSE visible
21 Oct 5.7 08:11:49 15° ENE 08:13:40 17° E 08:17:12 10° ESE visible
21 Oct 3.7 09:53:11 27° NNW 09:56:24 87° ENE 10:02:12 10° SSE visible
22 Oct 5.8 07:51:01 13° ENE 07:52:28 14° E 07:55:24 10° ESE visible
22 Oct 3.8 09:32:23 32° NNW 09:35:04 77° ENE 09:40:50 10° SSE visible
22 Oct 5.0 11:14:27 10° W 11:19:18 27° SW 11:24:11 10° SSE visible
23 Oct 5.9 07:30:10 12° ENE 07:31:16 12° E 07:33:24 10° ESE visible
23 Oct 3.9 09:11:32 37° N 09:13:45 67° ENE 09:19:28 10° SSE visible
23 Oct 4.9 10:52:54 10° WNW 10:57:49 30° SW 11:02:53 10° SSE visible
24 Oct 6.1 07:09:55 10° E 07:10:06 10° E 07:10:17 10° E visible
24 Oct 4.0 08:50:40 40° NNE 08:52:26 58° ENE 08:58:05 10° SE visible
24 Oct 4.8 10:32:02 14° WNW 10:36:22 34° SW 10:41:35 10° SSE visible
25 Oct 4.2 08:29:45 41° NNE 08:31:08 50° ENE 08:36:41 10° SE visible
25 Oct 4.6 10:11:07 17° WNW 10:14:56 38° SW 10:20:17 10° SSE visible
26 Oct 4.3 08:08:49 39° NE 08:09:51 43° ENE 08:15:16 10° SE visible
26 Oct 4.5 09:50:10 22° WNW 09:53:30 42° SW 09:58:58 10° SSE visible
27 Oct 4.5 07:47:50 36° NE 07:48:35 38° ENE 07:53:50 10° SE visible
27 Oct 4.3 09:29:12 26° WNW 09:32:05 47° SW 09:37:40 10° SSE visible
